[[{"header":{"parameterUnit":"m.s-1","parameterCategory":1,"la1":30.2991,"la2":30.254,"lo1":-89.0895,"lo2":-89.0444,"dy":0.0017,"dx":0.0017,"nx":28,"ny":28,"refTime":"2023-07-28T21:00:00:Z","depth":0,"parameterNumber":2,"parameterNumberName":"U-component_of_WINDS"},"data":[0,0,0,0,0,0,0,0,0,0,0,0,0,0,0,0,0,0,0,0,0,0,0,0,0,0,0,0,0,0,0,0,0,0,0,0,0,0,0,0,0,0,0,0,0,0,0,0,0,0,0,0,0,0,0,0,0,0,2.4991,2.4991,0,2.5027,2.5028,2.5028,2.4978,2.4976,2.4975,2.4973,2.5014,2.5017,2.502,0,0,0,0,0,0,0,0,0,0,0,0,0,2.4883,2.4885,2.4991,2.4991,2.4992,2.5027,2.5028,2.5028,2.4979,2.4976,2.4974,2.4972,2.5013,2.5017,2.502,0,0,0,0,0,0,0,0,0,0,0,0,0,2.4926,2.4886,2.4991,2.4971,2.497,2.5027,2.5028,2.5028,2.4979,2.4976,2.4974,2.4971,2.5012,2.5016,2.502,2.51,0,0,2.5033,2.5035,0,0,0,0,0,0,0,0,2.4924,2.493,2.4974,2.4973,2.4971,2.4995,2.5005,2.5053,2.498,2.4976,2.4973,2.497,2.501,2.5015,2.5027,2.5102,2.5104,2.5034,2.5036,2.5038,2.5039,0,0,0,0,0,0,0,2.4921,2.4928,2.5005,2.4974,2.4973,2.4962,2.4965,2.5014,2.5008,2.4976,2.4972,2.4977,2.5009,2.5024,2.5028,2.5104,2.5033,2.5037,2.504,2.5041,2.5249,2.5252,0,0,0,0,0,0,2.4919,2.4926,2.5004,2.5007,2.494,2.4966,2.497,2.499,2.5007,2.5007,2.4979,2.4975,2.5018,2.5023,2.5029,2.5126,2.5038,2.5042,2.5044,2.5246,2.525,2.5253,0,0,0,0,0,0,2.4917,2.4927,2.5003,2.4965,2.4974,2.4971,2.4995,2.4993,2.5007,2.501,2.5009,2.4995,2.5016,2.5024,2.5083,2.5126,2.5044,2.5047,2.5242,2.5247,2.5251,2.5318,0,0,0,0,0,0,2.4914,2.4926,2.4955,2.4966,2.4976,2.5055,2.4997,2.4995,2.5014,2.5008,2.5024,2.5024,2.5014,2.5077,2.5087,2.5131,2.5051,2.5238,2.5244,2.525,2.5312,2.5324,2.5335,0,0,0,0,0,2.4911,2.4973,2.4957,2.4967,2.5012,2.5057,2.5063,2.505,2.5017,2.5048,2.505,2.5024,2.512,2.5084,2.5095,2.514,2.5236,2.5243,2.5249,2.5307,2.5322,2.5334,0,0,0,0,0,0,2.4969,2.4974,2.4957,2.5024,2.5041,2.5049,2.5086,2.5066,2.5093,2.5086,2.5069,2.5073,2.5138,2.5144,2.5104,2.5219,2.5173,2.5182,2.5213,2.5227,2.5238,2.5236,2.5054,0,0,0,0,0,2.4989,2.5024,2.5027,2.5086,2.5095,2.509,2.5109,2.5097,2.5114,2.5121,2.5127,2.5146,2.5181,2.5204,2.5235,2.5312,2.5317,2.5349,2.536,2.537,2.5379,2.5422,2.5437,2.5275,2.5275,2.5275,0,0,2.5032,2.5039,2.5062,2.5098,2.511,2.5148,2.5096,2.5138,2.5167,2.5128,2.5185,2.519,2.521,2.5279,2.531,2.5287,2.5424,2.5378,2.5386,2.539,2.5431,2.5446,2.546,2.528,2.5279,2.5278,0,0,2.513,2.5138,2.5189,2.5202,2.5219,2.5215,2.5228,2.5239,2.5241,2.5298,2.527,2.5305,2.5364,2.538,2.5396,2.5501,2.548,2.5512,2.5573,2.5615,2.5628,2.564,2.568,2.5694,2.5521,2.5521,2.5521,0,2.5182,2.5237,2.5219,2.5263,2.5281,2.5246,2.5299,2.5313,2.534,2.5354,2.5327,2.5402,2.5413,2.5487,2.5513,2.5526,2.5541,2.5511,2.5627,2.5639,2.5649,2.5687,2.5702,2.5525,2.5524,2.5524,2.5524,0,2.5301,2.5339,2.5379,2.5406,2.5428,2.5476,2.5468,2.5492,2.5479,2.5478,2.5538,2.5549,2.5584,2.56,2.5587,2.5673,2.5658,2.563,2.5583,2.5669,2.5705,2.5719,2.5531,2.5529,2.5528,2.5527,0,0,2.5437,2.5453,2.5469,2.5481,2.5499,2.5529,2.5577,2.561,2.5633,2.5653,2.5695,2.5746,2.572,2.5738,2.5727,2.5764,2.585,2.5731,2.5732,2.5755,2.5948,2.5971,2.5988,2.5835,2.5838,2.584,2.5948,0,2.5537,2.5619,2.5604,2.5685,2.5722,2.5689,2.5732,2.5748,2.5749,2.5782,2.5783,2.5821,2.5782,2.5793,2.5828,2.5832,2.5889,2.5824,2.5876,2.5878,2.5874,2.6007,2.6031,2.6132,2.5961,2.5963,2.5965,0,2.5665,2.5689,2.5773,2.5786,2.5801,2.5839,2.5869,2.59,2.5919,2.5917,2.5938,2.592,2.597,2.5921,2.5991,2.5947,2.5968,2.5973,2.5976,2.5983,2.5928,2.6019,2.6164,2.618,2.5986,2.5985,2.5983,0,2.5759,2.5813,2.5871,2.5882,2.5898,2.5926,2.5934,2.595,2.5971,2.5998,2.6012,2.6044,2.6063,2.6089,2.6081,2.6046,2.6154,2.6104,2.6157,2.6157,2.6183,2.6182,2.6335,2.6192,2.6192,2.6191,2.6191,0,2.5874,2.5927,2.5914,2.595,2.6009,2.5993,2.6052,2.6057,2.6071,2.6109,2.6083,2.6119,2.6105,2.6141,2.6136,2.6196,2.6204,2.6206,2.6204,2.621,2.621,2.6225,2.6218,2.6195,2.6194,2.6194,2.6193,0,2.599,2.5983,2.6044,2.6054,2.6058,2.6102,2.6111,2.6146,2.6144,2.6192,2.6203,2.6201,2.6243,2.6237,2.6283,2.6279,2.6355,2.6344,2.6349,2.6347,2.6401,2.6397,2.6572,2.6595,2.6434,2.6436,2.6437,0,2.6065,2.6105,2.612,2.6142,2.6152,2.6189,2.6211,2.6196,2.622,2.6245,2.6277,2.6316,2.6346,2.6414,2.6418,2.6454,2.6445,2.6503,2.645,2.6455,2.6449,2.6447,2.6453,2.6515,2.6516,2.6518,2.6519,0,2.62,2.6195,2.6226,2.6256,2.6282,2.6306,2.6327,2.6348,2.6336,2.6364,2.6405,2.6429,2.6476,2.6515,2.6549,2.6559,2.6539,2.6535,2.655,2.6557,2.656,2.6562,2.6381,2.6532,2.6531,2.653,2.6529,2.6529,2.63,2.6335,2.6351,2.6387,2.6401,2.6422,2.6455,2.6458,2.6491,2.6528,2.6517,2.6565,2.6584,2.6627,2.6641,2.6679,2.6658,2.6678,2.6684,2.669,2.6698,2.6551,2.6685,2.6685,2.6684,2.6684,2.6684,0,2.6436,2.6444,2.6477,2.6508,2.6537,2.6512,2.6535,2.6561,2.6603,2.6622,2.6652,2.6701,2.6739,2.6746,2.6783,2.6813,2.6805,2.6823,2.6823,2.6826,2.6713,2.6698,2.683,2.683,2.683,2.683,2.683,2.683,2.651,2.6569,2.6565,2.6631,2.664,2.6685,2.6701,2.672,2.6735,2.679,2.6822,2.6825,2.6841,2.6879,2.6914,2.6915,2.6931,2.6955,2.6953,2.6848,2.6833,2.682,2.6805,2.6958,2.6958,2.7062,2.7063,2.7064]},{"header":{"parameterUnit":"m.s-1","parameterCategory":1,"la1":30.2991,"la2":30.254,"lo1":-89.0895,"lo2":-89.0444,"dy":0.0017,"dx":0.0017,"nx":28,"ny":28,"refTime":"2023-07-28T21:00:00:Z","depth":0,"parameterNumber":3,"parameterNumberName":"V-component_of_WINDS"},"data":[0,0,0,0,0,0,0,0,0,0,0,0,0,0,0,0,0,0,0,0,0,0,0,0,0,0,0,0,0,0,0,0,0,0,0,0,0,0,0,0,0,0,0,0,0,0,0,0,0,0,0,0,0,0,0,0,0,0,-0.9896,-0.9895,0,-0.9882,-0.9882,-0.9881,-0.9887,-0.9888,-0.9888,-0.9888,-0.9873,-0.9872,-0.9872,0,0,0,0,0,0,0,0,0,0,0,0,0,-0.9927,-0.9927,-0.9896,-0.9895,-0.9895,-0.9882,-0.9882,-0.9881,-0.9887,-0.9888,-0.9888,-0.9888,-0.9873,-0.9872,-0.9871,0,0,0,0,0,0,0,0,0,0,0,0,0,-0.9914,-0.9927,-0.9896,-0.9897,-0.9897,-0.9882,-0.9882,-0.9881,-0.9887,-0.9888,-0.9888,-0.9889,-0.9873,-0.9872,-0.9871,-0.9855,0,0,-0.9868,-0.9868,0,0,0,0,0,0,0,0,-0.9914,-0.9912,-0.9897,-0.9896,-0.9896,-0.9887,-0.9887,-0.9872,-0.9887,-0.9891,-0.9888,-0.9889,-0.9877,-0.9876,-0.9872,-0.9854,-0.9853,-0.9868,-0.9867,-0.9867,-0.9867,0,0,0,0,0,0,0,-0.9915,-0.9913,-0.989,-0.9896,-0.9896,-0.9898,-0.9896,-0.9884,-0.9881,-0.989,-0.9891,-0.9889,-0.9877,-0.9873,-0.9872,-0.9853,-0.9868,-0.9867,-0.9866,-0.9866,-0.9822,-0.9822,0,0,0,0,0,0,-0.9916,-0.9914,-0.9891,-0.989,-0.9907,-0.9897,-0.9895,-0.9889,-0.9881,-0.9881,-0.9889,-0.9889,-0.9875,-0.9873,-0.9871,-0.9852,-0.9867,-0.9866,-0.9865,-0.9823,-0.9822,-0.9822,0,0,0,0,0,0,-0.9917,-0.9914,-0.9891,-0.9902,-0.9899,-0.9896,-0.9889,-0.9889,-0.9885,-0.988,-0.9879,-0.9885,-0.9875,-0.9873,-0.9859,-0.9852,-0.9865,-0.9864,-0.9823,-0.9823,-0.9822,-0.9813,0,0,0,0,0,0,-0.9918,-0.9914,-0.9908,-0.9902,-0.9898,-0.9879,-0.9889,-0.9888,-0.9883,-0.9884,-0.9876,-0.9876,-0.9875,-0.9861,-0.9858,-0.985,-0.9864,-0.9824,-0.9823,-0.9822,-0.9814,-0.9812,-0.9811,0,0,0,0,0,-0.9919,-0.9905,-0.9907,-0.9905,-0.989,-0.9879,-0.9877,-0.9877,-0.9882,-0.9876,-0.9873,-0.9876,-0.9853,-0.9859,-0.9856,-0.9848,-0.9825,-0.9823,-0.9822,-0.9815,-0.9813,-0.9811,0,0,0,0,0,0,-0.991,-0.9904,-0.9907,-0.9891,-0.9885,-0.988,-0.9871,-0.9874,-0.9866,-0.9868,-0.9867,-0.9866,-0.9852,-0.9849,-0.9856,-0.9833,-0.984,-0.9838,-0.9835,-0.9833,-0.9831,-0.9832,-0.9863,0,0,0,0,0,-0.9906,-0.9897,-0.9893,-0.9879,-0.9877,-0.9875,-0.9869,-0.987,-0.9864,-0.9862,-0.9858,-0.9852,-0.9844,-0.9838,-0.983,-0.9814,-0.9813,-0.9807,-0.9805,-0.9804,-0.9802,-0.9795,-0.9793,-0.9818,-0.9818,-0.9818,0,0,-0.9898,-0.9894,-0.9888,-0.9877,-0.9873,-0.9865,-0.9872,-0.9862,-0.9856,-0.986,-0.9848,-0.9845,-0.9838,-0.9824,-0.9817,-0.9821,-0.9796,-0.9802,-0.9801,-0.9801,-0.9794,-0.9791,-0.9789,-0.9817,-0.9817,-0.9817,0,0,-0.9879,-0.9874,-0.9863,-0.9859,-0.9853,-0.9852,-0.985,-0.9844,-0.9843,-0.983,-0.9834,-0.9826,-0.9811,-0.9807,-0.9803,-0.9784,-0.9787,-0.9782,-0.9773,-0.9766,-0.9764,-0.9762,-0.9756,-0.9754,-0.978,-0.978,-0.978,0,-0.9869,-0.9856,-0.9857,-0.9848,-0.9843,-0.9847,-0.9837,-0.9832,-0.9824,-0.9821,-0.9825,-0.9808,-0.9803,-0.9789,-0.9785,-0.9781,-0.9778,-0.9783,-0.9764,-0.9762,-0.9761,-0.9755,-0.9753,-0.978,-0.978,-0.978,-0.978,0,-0.9846,-0.9837,-0.9828,-0.9821,-0.9816,-0.9805,-0.9805,-0.98,-0.9801,-0.98,-0.9788,-0.9783,-0.9775,-0.9772,-0.9772,-0.9758,-0.976,-0.9764,-0.9771,-0.9758,-0.9753,-0.975,-0.9779,-0.9779,-0.9779,-0.9779,0,0,-0.9819,-0.9814,-0.9811,-0.9809,-0.9803,-0.9796,-0.9787,-0.9779,-0.9775,-0.9769,-0.9762,-0.975,-0.9754,-0.975,-0.975,-0.9744,-0.9731,-0.9749,-0.9749,-0.9746,-0.9716,-0.9713,-0.9711,-0.9733,-0.9732,-0.9732,-0.9717,0,-0.9801,-0.9784,-0.9785,-0.977,-0.9763,-0.9767,-0.9759,-0.9755,-0.9754,-0.9748,-0.9746,-0.9739,-0.9744,-0.9741,-0.9735,-0.9734,-0.9725,-0.9735,-0.9726,-0.9726,-0.9728,-0.9708,-0.9705,-0.9691,-0.9715,-0.9714,-0.9714,0,-0.9776,-0.9771,-0.9755,-0.9752,-0.9749,-0.9742,-0.9736,-0.973,-0.9726,-0.9726,-0.9721,-0.9723,-0.9714,-0.9722,-0.971,-0.9717,-0.9713,-0.9712,-0.9712,-0.9711,-0.9719,-0.9708,-0.9686,-0.9684,-0.9711,-0.9711,-0.9711,0,-0.976,-0.9749,-0.9738,-0.9736,-0.9732,-0.9727,-0.9725,-0.9722,-0.9718,-0.9713,-0.971,-0.9704,-0.9701,-0.9696,-0.9697,-0.9702,-0.9685,-0.9692,-0.9685,-0.9685,-0.9681,-0.9682,-0.9659,-0.9678,-0.9678,-0.9678,-0.9678,0,-0.9739,-0.9729,-0.9731,-0.9725,-0.9715,-0.9716,-0.9706,-0.9705,-0.9702,-0.9696,-0.9699,-0.9693,-0.9694,-0.9688,-0.9689,-0.968,-0.9678,-0.9678,-0.9678,-0.9678,-0.9678,-0.9676,-0.9677,-0.9678,-0.9678,-0.9678,-0.9678,0,-0.9719,-0.972,-0.9709,-0.9707,-0.9706,-0.9699,-0.9697,-0.9691,-0.9691,-0.9683,-0.9682,-0.9681,-0.9675,-0.9675,-0.9667,-0.9668,-0.9657,-0.9658,-0.9658,-0.9659,-0.9652,-0.9653,-0.9628,-0.9625,-0.9645,-0.9645,-0.9645,0,-0.9706,-0.9699,-0.9697,-0.9693,-0.9691,-0.9685,-0.9682,-0.9683,-0.968,-0.9676,-0.9671,-0.9665,-0.966,-0.965,-0.9649,-0.9643,-0.9645,-0.9636,-0.9644,-0.9644,-0.9646,-0.9646,-0.9646,-0.9635,-0.9635,-0.9635,-0.9634,0,-0.9683,-0.9684,-0.9679,-0.9675,-0.9671,-0.9667,-0.9664,-0.966,-0.9662,-0.9658,-0.9652,-0.9648,-0.9641,-0.9636,-0.9631,-0.9629,-0.9632,-0.9632,-0.963,-0.963,-0.9631,-0.9632,-0.9655,-0.9633,-0.9633,-0.9633,-0.9633,-0.9633,-0.9667,-0.9661,-0.9659,-0.9654,-0.9652,-0.9649,-0.9644,-0.9644,-0.9639,-0.9634,-0.9635,-0.9629,-0.9626,-0.962,-0.9618,-0.9614,-0.9617,-0.9614,-0.9613,-0.9613,-0.9612,-0.9632,-0.9613,-0.9613,-0.9613,-0.9613,-0.9613,0,-0.9645,-0.9644,-0.9639,-0.9635,-0.9631,-0.9635,-0.9632,-0.9629,-0.9623,-0.9621,-0.9617,-0.961,-0.9605,-0.9605,-0.96,-0.9596,-0.9598,-0.9595,-0.9596,-0.9595,-0.9609,-0.9612,-0.9594,-0.9594,-0.9594,-0.9594,-0.9594,-0.9594,-0.9633,-0.9624,-0.9626,-0.9617,-0.9616,-0.961,-0.9608,-0.9606,-0.9604,-0.9597,-0.9593,-0.9593,-0.9592,-0.9588,-0.9583,-0.9583,-0.9582,-0.9579,-0.9579,-0.9592,-0.9594,-0.9596,-0.9598,-0.9578,-0.9578,-0.9566,-0.9566,-0.9566]}]]